Regional Weather Roundup
Issued by NWS Little Rock, AR

Home | Current Version | Previous Version | Text Only | Print | Product List | Glossary Off
Versions: 1 2 3 4 5 6 7 8 9 10 11 12 13 14 15 16 17 18 19 20 21 22 23 24 25 26 27 28 29 30 31 32 33 34 35 36 37 38 39 40 41 42 43 44 45 46 47 48 49 50

000
ASUS44 KLZK 312305
RWRLZK

WEATHER ROUNDUP FOR ARKANSAS
NATIONAL WEATHER SERVICE LITTLE ROCK AR
500 PM CST SAT JAN 31 2015

NOTE: "FAIR" INDICATES FEW OR NO CLOUDS BELOW 12,000 FEET WITH NO
SIGNIFICANT WEATHER AND/OR OBSTRUCTIONS TO VISIBILITY.

ARZ001-003-010-029-010000-
NORTHWEST ARKANSAS

CITY           SKY/WX    TMP DP  RH WIND       PRES   REMARKS
FAYETTEVILLE   CLOUDY    45  27  49 S12       30.05F
FORT SMITH     CLOUDY    50  30  46 E8        30.06F
HARRISON       CLOUDY    43  25  49 SE14      30.07F
BENTONVILLE    CLOUDY    46  25  42 S7        30.05F
ROGERS         CLOUDY    46  25  43 SE8       30.05F
SILOAM SPGS    CLOUDY   N/A N/A N/A SE8       30.05F
HIGHFILL       CLOUDY    47  26  44 S13       30.04F
SPRINGDALE     PTCLDY    46  27  46 SE8       30.06F
$$

ARZ004-005-016-010000-
NORTH CENTRAL ARKANSAS

CITY           SKY/WX    TMP DP  RH WIND       PRES   REMARKS
BATESVILLE     CLOUDY    45  27  49 E9        30.16F
FLIPPIN        CLOUDY    46  19  34 SE3       30.11F
MTN HOME       CLOUDY    45  21  38 SE9       30.10F
$$

ARZ040-041-010000-
WEST CENTRAL ARKANSAS

CITY           SKY/WX    TMP DP  RH WIND       PRES   REMARKS
MENA           CLOUDY    52  30  43 SE6       30.06F
MOUNT IDA      CLOUDY    47  28  47 SE9       30.07F
$$

ARZ009-017-025-026-028-010000-
NORTHEAST ARKANSAS

CITY           SKY/WX    TMP DP  RH WIND       PRES   REMARKS
CORNING        FAIR      43  32  65 E8        30.21S
JONESBORO      CLOUDY    43  29  57 E9        30.19F
NEWPORT        CLOUDY    44  31  60 E6        30.20F
WALNUT RIDGE   CLOUDY    43  27  52 E8        30.19S
BLYTHEVILLE    CLOUDY    45  28  51 E8        30.22F
$$

ARZ022-023-033-042-044-010000-
CENTRAL ARKANSAS

CITY           SKY/WX    TMP DP  RH WIND       PRES   REMARKS
LITTLE ROCK    CLOUDY    46  28  49 E8        30.16F
N LITTLE ROCK  CLOUDY    44  31  60 E9        30.16F
JACKSONVILLE   CLOUDY    45  29  52 E5        30.16F
SEARCY         CLOUDY    45  27  49 E8        30.18F
HOT SPRINGS    CLOUDY    48  28  46 SE7       30.12F
RUSSELLVILLE   CLOUDY    47  28  47 E7        30.12F
CLINTON        MOCLDY    45  28  53 CALM      30.15F
$$

ARZ036-010000-
EAST ARKANSAS

CITY           SKY/WX    TMP DP  RH WIND       PRES   REMARKS
WEST MEMPHIS   CLOUDY    45  27  49 E5        30.20F
$$

ARZ050-053-066-070-073-010000-
SOUTHWEST ARKANSAS

CITY           SKY/WX    TMP DP  RH WIND       PRES   REMARKS
ARKADELPHIA    FAIR      49  34  56 E5        30.14F
CAMDEN         CLOUDY    54  28  37 MISG      30.14F
TEXARKANA      CLOUDY    52  32  46 SE6       30.09F
EL DORADO      CLOUDY    53  33  46 E7        30.13F
DE QUEEN       CLOUDY    51  31  46 E9        30.06F
$$

ARZ056-057-069-010000-
SOUTHEAST ARKANSAS

CITY           SKY/WX    TMP DP  RH WIND       PRES   REMARKS
PINE BLUFF     CLOUDY    47  31  53 E7        30.16F
STUTTGART      CLOUDY    46  28  49 E8        30.17F
MONTICELLO     CLOUDY    53  29  39 E3        30.15F

$$





USA.gov is the U.S. government's official web portal to all federal, state and local government web resources and services.